星链-36313(STARLINK-36313)

导读

STARLINK-36313(NORAD编号68156)是SpaceX星链星座中的一颗低轨互联网通信卫星,隶属于星链全球组网项目,该项目计划在近地轨道部署超4.2万颗卫星,为全球提供高速低时延卫星互联网服务。 2026年3月底,这颗卫星在约560公里高度的近地轨道突然解体,SpaceX证实已与其失去联系。跟踪机构LeoLabs分析,解体源于卫星内部能源异常,而非太空碎片碰撞。产生的数十块碎片大部分会在数周内再入大气层烧毁,目前评估对国际空间站及阿尔忒弥斯二号任务风险较低,但此次事件再次引发了对低轨星座太空碎片风险的讨论。

基本信息
目录编号:
68156
目录名称:
STARLINK-36313
国际标识:
2026-049Q
轨道中心:
EARTH
卫星名称:
星链-36313
卫星全名:
星链-36313(STARLINK-36313)
卫星状态:
在轨 (已飞行175 天)
发射日期:
2026-03-13 UTC
国别 :
美国 (US)
星等 :
--
轨道信息
数据来源 国际轨道数据
星历时间: 2026-09-04T04:04:12+0800
7小时前
查看轨道信息
半长轴: 6843.688km
偏心率: 0.0002225
轨道倾角: 97.283°
近地点辐角 87.676°
升交点赤经 266.974°
平近点角 272.474°
近地点: 464.028km
远地点: 467.074km
周期: 93.906分钟
每日圈数: 15.334426
详细信息
固有亮度:
5
最大亮度:
2.5
卫星平台:
Starlink V1.0
覆盖范围:
全球
运营商:
太空探索技术公司
运营商所在国:
美国
制造商(研发单位):
太空探索技术公司
制造商所在国:
美国
使用方式:
暂无
卫星简介
Starlink 计划是 SpaceX 推出的全球卫星互联网项目,通过发射低轨道卫星,为全球尤其是偏远地区提供高速、低延迟的互联网服务。自 2019 年起,Starlink 已部署数千颗卫星,旨在缩小全球数字鸿沟,推动互联网普及。该项目还为军事、航空等行业提供通信支持,带来广泛经济效益。
2D轨道图
3D轨道图
轨道高度分析图
轨道倾角分析图
轨道综合分析图
查看轨道综合分析图
交会数据列表
事件ID 空间交会对象 最接近时刻(TCA) 交会距离 交会风险概率(CRP) 交会风险指数(CRI) 操作
CDM_260830-193605-338806-815621
2026-08-30T
19:36:30+0000
1.109 km
极远距离
1.868685E-5 中风险 0.6
CDM_260830-133005-269806-815621
2026-08-30T
13:30:21+0000
2.800 km
极远距离
1.461818E-6 低风险 0.38
CDM_260905-055805-264606-815621
2026-09-05T
05:58:20+0000
2.678 km
极远距离
1.399282E-6 低风险 0.38
CDM_260827-190906-634906-815621
2026-08-27T
19:09:38+0000
2.918 km
极远距离
1.235614E-6 低风险 0.37